Weather History for Fremont, NE

Change the Weather History Date:

Sunday, October 7, 2012

  Actual Average Record
Temperature  
Mean Temperature 39 °F -  
Max Temperature 57 °F 69 °F 89 °F (1949)
Min Temperature 21 °F 40 °F 21 °F (2000)
Degree Days  
Heating Degree Days 26    
Moisture  
Dew Point 26 °F    
Average Humidity 61    
Maximum Humidity 93    
Minimum Humidity 30    
Precipitation  
Precipitation 0.00 in - - ()
Sea Level Pressure  
Sea Level Pressure 30.16 in    
Wind  
Wind Speed 6 mph (WSW)    
Max Wind Speed 21 mph    
Max Gust Speed 28 mph    
Visibility 10 miles    
Events      
Averages and records for this station are not official NWS values.
T = Trace of Precipitation, MM = Missing Value Source: NWS Daily Summary

Daily Weather History Graph

Daily Weather History Graph

Search for Another Location

Airport:

Trip Planner

Search our weather history database for the weather conditions in past years. The results will help you decide how hot, cold, wet, or windy it might be!

Date:

Astronomy

Oct. 07, 2012 Rise Set
Actual Time 7:29 AM CDT 6:56 PM CDT
Civil Twilight 7:02 AM CDT 7:24 PM CDT
Nautical Twilight 6:30 AM CDT 7:56 PM CDT
Astronomical Twilight 5:57 AM CDT 8:28 PM CDT
Moon No Moon Rise 2:10 PM CDT (10/7)
Length of Visible Light 12h 22m
Length of Day
11h 27m
Waning Gibbous, 56% of the Moon is Illuminated
Oct 7
Waning Gibbous
Oct 8
Last Quarter
Oct 15
New
Oct 21
First Quarter
Oct 29
Full

Hourly Weather History & Observations

Time (CDT) Temp. Windchill Dew Point Humidity Pressure Visibility Wind Dir Wind Speed Gust Speed Precip Events Conditions
12:15 AM 30.0 °F 25.2 °F 24.4 °F 80% 30.30 in 10.0 mi WNW 4.6 mph - N/A   Clear
12:35 AM 27.1 °F 21.8 °F 22.5 °F 83% 30.30 in 10.0 mi West 4.6 mph - N/A   Clear
12:55 AM 25.5 °F 19.9 °F 21.9 °F 86% 30.30 in 10.0 mi West 4.6 mph - N/A   Clear
1:15 AM 26.1 °F 20.5 °F 22.1 °F 85% 30.30 in 10.0 mi WNW 4.6 mph - N/A   Clear
1:35 AM 25.5 °F 18.7 °F 21.9 °F 86% 30.30 in 10.0 mi WNW 5.8 mph - N/A   Clear
1:55 AM 24.6 °F 18.8 °F 21.4 °F 87% 30.30 in 10.0 mi WNW 4.6 mph - N/A   Clear
2:15 AM 24.4 °F 17.5 °F 21.6 °F 89% 30.30 in 10.0 mi WNW 5.8 mph - N/A   Clear
2:35 AM 25.0 °F 19.3 °F 21.7 °F 87% 30.30 in 10.0 mi WNW 4.6 mph - N/A   Clear
2:55 AM 23.9 °F 18.0 °F 21.4 °F 90% 30.29 in 10.0 mi WNW 4.6 mph - N/A   Clear
3:15 AM 24.8 °F 19.1 °F 21.9 °F 89% 30.28 in 10.0 mi WNW 4.6 mph - N/A   Clear
3:35 AM 23.7 °F 16.6 °F 21.2 °F 90% 30.28 in 10.0 mi WNW 5.8 mph - N/A   Clear
3:55 AM 23.4 °F 18.9 °F 20.8 °F 90% 30.27 in 10.0 mi NW 3.5 mph - N/A   Clear
4:15 AM 22.6 °F 18.0 °F 20.7 °F 92% 30.27 in 10.0 mi WNW 3.5 mph - N/A   Clear
4:35 AM 22.8 °F 18.2 °F 20.7 °F 91% 30.27 in 10.0 mi West 3.5 mph - N/A   Clear
4:55 AM 23.7 °F - 21.4 °F 91% 30.26 in 10.0 mi Calm Calm - N/A   Clear
5:15 AM 24.1 °F - 21.9 °F 91% 30.26 in 10.0 mi Calm Calm - N/A   Clear
5:35 AM 23.9 °F 18.0 °F 21.9 °F 92% 30.26 in 10.0 mi West 4.6 mph - N/A   Clear
5:55 AM 23.7 °F 19.3 °F 21.4 °F 91% 30.26 in 10.0 mi WNW 3.5 mph - N/A   Clear
6:15 AM 23.0 °F - 21.0 °F 92% 30.26 in 10.0 mi Calm Calm - N/A   Clear
6:35 AM 23.0 °F - 21.2 °F 93% 30.26 in 10.0 mi Calm Calm - N/A   Clear
6:55 AM 21.6 °F 16.8 °F 19.6 °F 92% 30.26 in 10.0 mi WNW 3.5 mph - N/A   Clear
7:15 AM 21.4 °F 15.1 °F 19.8 °F 93% 30.26 in 10.0 mi West 4.6 mph - N/A   Clear
7:35 AM 22.1 °F 15.9 °F 20.1 °F 92% 30.26 in 10.0 mi WNW 4.6 mph - N/A   Clear
7:55 AM 22.8 °F - 20.5 °F 91% 30.26 in 10.0 mi Calm Calm - N/A   Clear
8:15 AM 24.4 °F - 21.9 °F 90% 30.27 in 10.0 mi Calm Calm - N/A   Clear
8:55 AM 29.8 °F - 25.9 °F 85% 30.26 in 10.0 mi Calm Calm - N/A   Clear
9:15 AM 32.0 °F - 27.3 °F 83% 30.26 in 10.0 mi Calm Calm - N/A   Clear
9:55 AM 38.3 °F 33.9 °F 29.5 °F 71% 30.26 in 10.0 mi WSW 5.8 mph - N/A   Clear
10:15 AM 40.5 °F 36.5 °F 30.9 °F 69% 30.25 in 10.0 mi West 5.8 mph - N/A   Clear
10:35 AM 42.1 °F 40.2 °F 30.9 °F 65% 30.24 in 10.0 mi West 3.5 mph - N/A   Clear
10:55 AM 44.4 °F 42.9 °F 32.0 °F 62% 30.23 in 10.0 mi WSW 3.5 mph - N/A   Clear
11:15 AM 47.1 °F - 31.6 °F 55% 30.23 in 10.0 mi West 9.2 mph - N/A   Clear
11:35 AM 49.1 °F - 30.4 °F 49% 30.22 in 10.0 mi SW 6.9 mph - N/A   Clear
11:55 AM 50.0 °F - 29.8 °F 46% 30.20 in 10.0 mi West 4.6 mph - N/A   Clear
12:15 PM 52.3 °F - 28.9 °F 41% 30.20 in 10.0 mi West 13.8 mph 17.3 mph N/A   Clear
12:35 PM 53.6 °F - 28.6 °F 38% 30.19 in 10.0 mi WSW 12.7 mph 18.4 mph N/A   Clear
12:55 PM 54.5 °F - 27.7 °F 36% 30.17 in 10.0 mi WSW 12.7 mph 23.0 mph N/A   Clear
1:15 PM 54.9 °F - 27.0 °F 34% 30.16 in 10.0 mi West 13.8 mph 23.0 mph N/A   Clear
1:35 PM 55.0 °F - 26.2 °F 33% 30.15 in 10.0 mi SW 15.0 mph 21.9 mph N/A   Clear
1:55 PM 55.9 °F - 26.1 °F 32% 30.14 in 10.0 mi WSW 18.4 mph 24.2 mph N/A   Clear
2:15 PM 56.3 °F - 25.9 °F 31% 30.13 in 10.0 mi West 15.0 mph 21.9 mph N/A   Clear
2:35 PM 57.0 °F - 26.1 °F 30% 30.11 in 10.0 mi SW 12.7 mph 24.2 mph N/A   Clear
2:55 PM 57.2 °F - 25.7 °F 30% 30.10 in 10.0 mi WSW 11.5 mph 21.9 mph N/A   Clear
3:15 PM 56.8 °F - 26.1 °F 31% 30.09 in 10.0 mi SSW 15.0 mph 21.9 mph N/A   Clear
3:35 PM 57.2 °F - 25.5 °F 30% 30.08 in 10.0 mi WSW 20.7 mph 27.6 mph N/A   Clear
3:55 PM 57.4 °F - 25.9 °F 30% 30.07 in 10.0 mi SW 11.5 mph 18.4 mph N/A   Clear
4:15 PM 57.4 °F - 26.1 °F 30% 30.06 in 10.0 mi SSW 13.8 mph 20.7 mph N/A   Clear
4:35 PM 57.4 °F - 26.8 °F 31% 30.06 in 10.0 mi SW 17.3 mph 23.0 mph N/A   Clear
4:55 PM 57.2 °F - 27.0 °F 31% 30.05 in 10.0 mi SW 13.8 mph 18.4 mph N/A   Clear
5:15 PM 56.5 °F - 27.0 °F 32% 30.05 in 10.0 mi SSW 13.8 mph 19.6 mph N/A   Clear
5:35 PM 56.1 °F - 27.1 °F 33% 30.04 in 10.0 mi SW 13.8 mph 19.6 mph N/A   Clear
5:55 PM 55.6 °F - 27.5 °F 34% 30.04 in 10.0 mi SW 11.5 mph 20.7 mph N/A   Clear
6:15 PM 54.9 °F - 27.3 °F 35% 30.04 in 10.0 mi SSW 9.2 mph - N/A   Clear
6:35 PM 54.0 °F - 27.3 °F 36% 30.04 in 10.0 mi SSW 10.4 mph 16.1 mph N/A   Clear
6:55 PM 52.5 °F - 27.1 °F 38% 30.04 in 10.0 mi SW 6.9 mph - N/A   Clear
7:15 PM 51.3 °F - 27.1 °F 39% 30.04 in 10.0 mi SSW 6.9 mph - N/A   Clear
7:55 PM 48.4 °F - 28.2 °F 46% 30.04 in 10.0 mi South 6.9 mph - N/A   Clear
8:15 PM 49.3 °F - 28.2 °F 44% 30.03 in 10.0 mi South 8.1 mph - N/A   Clear
8:35 PM 47.7 °F - 28.4 °F 47% 30.03 in 10.0 mi South 6.9 mph - N/A   Clear
8:55 PM 48.4 °F - 28.9 °F 47% 30.02 in 10.0 mi South 8.1 mph - N/A   Clear
9:15 PM 48.4 °F - 28.6 °F 46% 30.02 in 10.0 mi South 10.4 mph - N/A   Clear
9:35 PM 48.2 °F - 28.4 °F 46% 30.02 in 10.0 mi South 11.5 mph 16.1 mph N/A   Clear
9:55 PM 48.2 °F - 28.9 °F 47% 30.02 in 10.0 mi South 11.5 mph - N/A   Clear
10:15 PM 46.8 °F - 29.3 °F 51% 30.02 in 10.0 mi SSW 11.5 mph - N/A   Clear
10:35 PM 46.0 °F 40.2 °F 29.7 °F 53% 30.01 in 10.0 mi SSW 12.7 mph - N/A   Clear
10:55 PM 45.1 °F 39.9 °F 30.0 °F 55% 30.01 in 10.0 mi SSW 10.4 mph 16.1 mph N/A   Clear
11:15 PM 44.6 °F 39.2 °F 30.6 °F 58% 30.01 in 10.0 mi SSW 10.4 mph - N/A   Clear
11:35 PM 44.6 °F 38.8 °F 31.1 °F 59% 30.01 in 10.0 mi SSW 11.5 mph - N/A   Clear
11:55 PM 44.6 °F 39.7 °F 31.6 °F 60% 30.00 in 10.0 mi SSW 9.2 mph 17.3 mph N/A   Clear